Home > Weather > Werne > Past weeks

Flag for Germany Past Weather in Werne, North Rhine-Westphalia, Germany — Yesterday and Last 2 Weeks

Now
48 °F

Cool.


Feels Like: 48 °F
Forecast: 48 / 77 °F
Wind: No wind

Location: Muenster / Osnabrueck

Current Time: Aug 30, 2016 at 5:25:48 AM

Latest Report: Aug 30, 2016 at 4:50 AM


Visibility: N/A

Pressure: 30.27 "Hg

Humidity: 94%

Dew Point: 46 °F

Location of WerneLocation

Past Weather in Werne — Graph

°F

Werne Temperature Yesterday

Maximum temperature yesterday: 70 °F (at 1:20 PM)
Minimum temperature yesterday: 54 °F (at 11:50 PM)
Average temperature yesterday: 65 °F

High & Low Weather Summary for the Past Weeks

 TemperatureHumidityPressure
High90 °F (Aug 25, 4:20 PM)100% (Aug 16, 3:50 AM)30.33 "Hg (Aug 16, 3:50 AM)
Low46 °F (Aug 17, 6:50 AM)29% (Aug 25, 5:20 PM)29.77 "Hg (Aug 19, 5:20 PM)
Average67 °F71%30.04 "Hg
* Reported Aug 15 3:20 AM — Aug 30 3:50 AM, Werne, Weather by CustomWeather, © 2016

Note: Actual official high and low records may vary slightly from our data, if they occured in-between our weather recording intervals... More about our weather records

Advertising

Werne Weather History for the Previous 24 Hours

Scroll right to see more
 ConditionsComfort  
Time TempWeatherWind HumidityBarometerVisibility
3:50 AM
Tue, Aug 30
48 °FCool.No wind100%30.27 "HgN/A
3:20 AM48 °FCool.No wind100%30.27 "HgN/A
2:50 AM50 °FCool.No wind94%30.27 "HgN/A
2:20 AM50 °FCool.No wind100%30.27 "HgN/A
1:50 AM52 °FFog.No wind94%30.27 "HgN/A
1:20 AM52 °FClear.No wind94%30.24 "Hg10 mi
12:50 AM52 °FClear.1 mph94%30.24 "Hg10 mi
12:20 AM54 °FClear.No wind88%30.24 "Hg10 mi
11:50 PM
Mon, Aug 29
54 °FClear.No wind94%30.24 "Hg10 mi
11:20 PM55 °FClear.1 mph88%30.24 "Hg10 mi
10:50 PM57 °FClear.2 mph82%30.24 "Hg10 mi
10:20 PM59 °FClear.3 mph77%30.21 "Hg10 mi
9:50 PM61 °FClear.7 mph72%30.21 "Hg10 mi
9:20 PM61 °FPassing clouds.5 mph77%30.18 "HgN/A
8:50 PM63 °FScattered clouds.6 mph73%30.18 "HgN/A
8:20 PM64 °FPartly sunny.7 mph68%30.15 "HgN/A
7:50 PM66 °FPartly sunny.9 mph64%30.15 "HgN/A
7:20 PM68 °FScattered clouds.7 mph60%30.15 "HgN/A
6:50 PM68 °FScattered clouds.7 mph60%30.15 "HgN/A
6:20 PM68 °FScattered clouds.8 mph64%30.15 "HgN/A
5:50 PM70 °FScattered clouds.9 mph57%30.12 "HgN/A
5:20 PM68 °FPartly sunny.9 mph64%30.12 "HgN/A
4:50 PM68 °FPartly sunny.9 mph64%30.12 "HgN/A
4:20 PM70 °FPartly sunny.8 mph60%30.12 "HgN/A
3:50 PM70 °FPartly sunny.9 mph60%30.09 "HgN/A
3:20 PM68 °FPartly sunny.8 mph69%30.09 "HgN/A
2:50 PM70 °FPartly sunny.14 mph53%30.09 "HgN/A
2:20 PM70 °FPartly sunny.12 mph60%30.09 "HgN/A
1:50 PM70 °FPartly sunny.10 mph60%30.09 "HgN/A
1:20 PM70 °FPartly sunny.9 mph60%30.07 "HgN/A
12:50 PM68 °FPartly sunny.8 mph64%30.07 "HgN/A
12:20 PM66 °FPartly sunny.10 mph73%30.07 "HgN/A
11:50 AM68 °FBroken clouds.8 mph73%30.07 "HgN/A
11:20 AM66 °FBroken clouds.8 mph78%30.07 "HgN/A
10:50 AM64 °FBroken clouds.8 mph83%30.04 "HgN/A
10:20 AM66 °FBroken clouds.9 mph73%30.04 "HgN/A
9:50 AM66 °FPartly sunny.10 mph78%30.04 "HgN/A
9:20 AM64 °FBroken clouds.12 mph83%30.04 "HgN/A
8:50 AM63 °FPartly sunny.10 mph88%30.01 "HgN/A
8:20 AM63 °FPartly sunny.10 mph88%30.01 "HgN/A
7:50 AM63 °FBroken clouds.10 mph83%30.01 "HgN/A
7:20 AM63 °FPassing clouds.10 mph83%29.98 "HgN/A
6:50 AM63 °FLight rain. Passing clouds.12 mph83%29.98 "HgN/A
6:20 AM64 °FPassing clouds.12 mph78%29.98 "HgN/A
5:50 AM63 °FPartly cloudy.8 mph83%29.98 "HgN/A
5:20 AM63 °FPassing clouds.10 mph83%29.98 "HgN/A
Weather by CustomWeather, © 2016

See weather overviewHow to use our weather pages